[[{"header":{"parameterUnit":"m.s-1","parameterCategory":2,"la1":30.2992,"la2":30.254,"lo1":-89.0895,"lo2":-89.0443,"dy":0.0025,"dx":0.0025,"nx":19,"ny":19,"refTime":"2026-03-21T09:00:00:Z","depth":"0","parameterNumber":2,"parameterNumberName":"U-component_of_CURRENTS"},"data":[0,0,0,0.1715,0.1721,0.2106,0.2108,0.2377,0.2378,0,0,0,0,0,0,0,0,0,0,0,0.1581,0.1583,0.1715,0.1722,0.2106,0.2108,0.2377,0.2378,0,0,0,0,0,0,0,0,0,0,0,0.1581,0.1582,0.1584,0.1723,0.2105,0.2109,0.2377,0.2157,0,0,0,0,0,0,0,0,0,0,0.1818,0.1709,0.1582,0.1584,0.1725,0.2105,0.2109,0.215,0.2171,0.212,0,0.2148,0,0.2235,0.2385,0.2386,0,0,0,0.1785,0.1692,0.1776,0.1584,0.1728,0.2104,0.1951,0.2164,0.2187,0.2146,0.2152,0.2165,0.224,0.2386,0.2387,0.2442,0.2442,0,0,0.1764,0.1677,0.1761,0.179,0.178,0.1938,0.1961,0.2181,0.2188,0.2153,0.2172,0.2244,0.2387,0.2388,0.2442,0.2442,0,0,0,0.166,0.1662,0.1749,0.1776,0.1846,0.1947,0.1975,0.2181,0.2204,0.2176,0.2247,0.2387,0.2389,0.2442,0.2442,0.2393,0,0,0,0.1651,0.1598,0.1738,0.1695,0.1842,0.2048,0.1968,0.219,0.2218,0.2246,0.2388,0.239,0.2443,0.2442,0.2395,0.2342,0,0,0,0.1572,0.1591,0.1617,0.1688,0.1826,0.2048,0.2091,0.2201,0.2256,0.2386,0.239,0.2443,0.2442,0.2396,0.2346,0.2289,0,0,0,0.1499,0.1555,0.1615,0.1723,0.1821,0.2003,0.2091,0.2246,0.2351,0.2388,0.2442,0.2442,0.2397,0.2348,0.2292,0.2188,0.2166,0,0,0.1536,0.1557,0.1633,0.1696,0.1828,0.1958,0.2102,0.2269,0.2321,0.2365,0.237,0.2394,0.2346,0.229,0.2161,0.2139,0,0,0,0.1628,0.1659,0.1716,0.1815,0.1939,0.2034,0.22,0.2259,0.2361,0.2371,0.2398,0.2369,0.2335,0.2279,0.2262,0.2332,0.244,0.244,0.244,0.164,0.1711,0.1786,0.1866,0.1945,0.2094,0.2179,0.2271,0.2328,0.235,0.2333,0.2259,0.22,0.2186,0.226,0.2356,0.2355,0.2355,0.2355,0.1695,0.1745,0.1784,0.1855,0.1914,0.2001,0.214,0.2203,0.2245,0.2306,0.2276,0.2235,0.2164,0.225,0.2352,0.2353,0.2353,0.2353,0.2354,0.1709,0.1714,0.1737,0.1785,0.1827,0.1936,0.1965,0.2074,0.2161,0.2148,0.2073,0.2073,0.2142,0.2127,0.2126,0.2126,0.2125,0.2125,0.2125,0.1687,0.1695,0.1692,0.172,0.1738,0.1764,0.1863,0.1889,0.1931,0.1981,0.1981,0.2114,0.2189,0.219,0.2117,0.2118,0.2119,0.212,0.2121,0.1669,0.1675,0.1675,0.1672,0.1656,0.1588,0.1674,0.1664,0.1705,0.169,0.1886,0.1901,0.1896,0.1909,0.1904,0.1761,0.1761,0.1761,0.1761,0.1672,0.1669,0.1645,0.1599,0.1553,0.1505,0.1398,0.143,0.1596,0.1684,0.1781,0.1838,0.185,0.1848,0.1863,0.186,0.1709,0.171,0.171,0.1654,0.167,0.1617,0.1557,0.1481,0.1375,0.1229,0.1228,0.1523,0.1722,0.1899,0.19,0.2008,0.202,0.204,0.2056,0.2059,0,0]},{"header":{"parameterUnit":"m.s-1","parameterCategory":2,"la1":30.2992,"la2":30.254,"lo1":-89.0895,"lo2":-89.0443,"dy":0.0025,"dx":0.0025,"nx":19,"ny":19,"refTime":"2026-03-21T09:00:00:Z","depth":"0","parameterNumber":3,"parameterNumberName":"V-component_of_CURRENTS"},"data":[0,0,0,0.0134,0.0135,0.021,0.0211,0.0356,0.0357,0,0,0,0,0,0,0,0,0,0,0,0.0104,0.0104,0.0133,0.0135,0.021,0.0211,0.0356,0.0357,0,0,0,0,0,0,0,0,0,0,0,0.0104,0.0104,0.0104,0.0135,0.021,0.0211,0.0355,0.0289,0,0,0,0,0,0,0,0,0,0,0.0211,0.0178,0.0104,0.0104,0.0135,0.021,0.0211,0.0286,0.0293,0.0332,0,0.0331,0,0.0345,0.0367,0.0367,0,0,0,0.0148,0.0171,0.0184,0.0104,0.0136,0.021,0.018,0.029,0.0299,0.0342,0.0334,0.0339,0.0348,0.0368,0.0368,0.0545,0.0546,0,0,0.0143,0.0131,0.0178,0.0189,0.0142,0.0177,0.0182,0.0295,0.0304,0.0334,0.0342,0.035,0.0369,0.037,0.0544,0.0545,0,0,0,0.0123,0.0128,0.0138,0.0183,0.0192,0.0179,0.0185,0.0299,0.0299,0.0344,0.0352,0.0369,0.0371,0.0543,0.0545,0.0605,0,0,0,0.0121,0.0115,0.0135,0.0131,0.0189,0.0241,0.0186,0.0291,0.0305,0.0351,0.037,0.0373,0.0542,0.0544,0.0602,0.0613,0,0,0,0.0103,0.0114,0.0116,0.0129,0.0156,0.0239,0.0247,0.0294,0.031,0.0367,0.0373,0.0542,0.0544,0.0598,0.0608,0.0629,0,0,0,0.0097,0.0124,0.0115,0.0164,0.0155,0.0252,0.0247,0.0324,0.0377,0.037,0.0542,0.0544,0.0597,0.0605,0.0627,0.0607,0.0618,0,0,0.0135,0.0129,0.0163,0.0157,0.0239,0.0243,0.037,0.0423,0.0422,0.0509,0.0513,0.0603,0.0608,0.0629,0.0725,0.0732,0,0,0,0.0179,0.0195,0.0221,0.0265,0.0321,0.0403,0.0453,0.0481,0.0552,0.0459,0.0627,0.0629,0.064,0.0623,0.063,0.0649,0.0554,0.0554,0.0553,0.0192,0.0235,0.0306,0.0369,0.0439,0.0528,0.0594,0.0643,0.0634,0.067,0.0697,0.0779,0.0765,0.0769,0.0791,0.0727,0.0727,0.0727,0.0727,0.0251,0.0316,0.0373,0.0453,0.054,0.0647,0.0757,0.076,0.0818,0.0785,0.0793,0.0712,0.078,0.08,0.0731,0.0731,0.073,0.073,0.0729,0.0275,0.0324,0.0352,0.0473,0.0603,0.0716,0.0831,0.0873,0.0869,0.0887,0.084,0.0839,0.0836,0.0882,0.0882,0.0882,0.0882,0.0882,0.0882,0.0301,0.0344,0.0392,0.05,0.0595,0.0724,0.0857,0.0898,0.092,0.09,0.0899,0.0878,0.0825,0.0796,0.0885,0.0885,0.0884,0.0884,0.0884,0.0385,0.0349,0.0452,0.0513,0.0683,0.0783,0.0874,0.0937,0.0955,0.0951,0.0943,0.0906,0.0876,0.087,0.0841,0.0937,0.0937,0.0937,0.0937,0.0422,0.0408,0.053,0.0628,0.0744,0.0836,0.0909,0.0963,0.0983,0.0994,0.0978,0.0953,0.095,0.0922,0.0915,0.0887,0.0992,0.0992,0.0992,0.0474,0.0512,0.06,0.0661,0.0791,0.0867,0.0934,0.1049,0.108,0.0998,0.1015,0.1012,0.0977,0.097,0.0924,0.0912,0.0864,0,0]}],[{"header":{"parameterUnit":"m.s-1","parameterCategory":2,"la1":30.2992,"la2":30.254,"lo1":-89.0895,"lo2":-89.0443,"dy":0.0025,"dx":0.0025,"nx":19,"ny":19,"refTime":"2026-03-21T09:00:00:Z","depth":"2","parameterNumber":2,"parameterNumberName":"U-component_of_CURRENTS"},"data":[0,0,0,0.1418,0.1425,0.1665,0.1665,0.1891,0.1893,0,0,0,0,0,0,0,0,0,0,0,0.1278,0.128,0.1417,0.1425,0.1665,0.1665,0.189,0.1893,0,0,0,0,0,0,0,0,0,0,0,0.1277,0.1279,0.1281,0.1426,0.1665,0.1665,0.189,0.1716,0,0,0,0,0,0,0,0,0,0,0.1488,0.1374,0.1279,0.1281,0.1428,0.1665,0.1665,0.1708,0.1727,0.1775,0,0.1815,0,0.1909,0.1911,0.1912,0,0,0,0.1373,0.1358,0.146,0.1282,0.1431,0.1665,0.1542,0.1719,0.174,0.18,0.1819,0.183,0.1913,0.1913,0.1914,0.2124,0.2124,0,0,0.136,0.1288,0.1446,0.1474,0.1498,0.1535,0.155,0.1732,0.1733,0.182,0.1837,0.1917,0.1915,0.1917,0.2124,0.2124,0,0,0,0.1357,0.1277,0.1375,0.1461,0.1541,0.1543,0.1561,0.1722,0.1766,0.184,0.1919,0.1916,0.192,0.2124,0.2124,0.2112,0,0,0,0.1346,0.1282,0.1368,0.1323,0.1538,0.1647,0.1546,0.175,0.1778,0.1918,0.1916,0.1922,0.2123,0.2124,0.2111,0.2066,0,0,0,0.1266,0.1274,0.131,0.1319,0.1459,0.1647,0.1697,0.1757,0.1829,0.1912,0.1923,0.2123,0.2124,0.2111,0.2067,0.2018,0,0,0,0.1171,0.1235,0.1307,0.1361,0.1457,0.1648,0.1697,0.1853,0.1931,0.1918,0.2123,0.2124,0.2111,0.2068,0.202,0.1877,0.1859,0,0,0.1207,0.1236,0.126,0.1334,0.1482,0.161,0.1738,0.1875,0.1945,0.2048,0.2054,0.2112,0.2067,0.2019,0.1916,0.1896,0,0,0,0.124,0.127,0.1317,0.1408,0.156,0.1691,0.1856,0.1928,0.2043,0.2009,0.2129,0.2101,0.207,0.1988,0.1974,0.2127,0.2127,0.2127,0.2127,0.1257,0.1296,0.1353,0.1443,0.1562,0.1779,0.1865,0.1992,0.2067,0.2121,0.2105,0.2075,0.1991,0.1977,0.2144,0.2143,0.2143,0.2143,0.2143,0.1312,0.1348,0.1374,0.1452,0.1583,0.173,0.1912,0.1986,0.2056,0.2118,0.209,0.1997,0.196,0.2143,0.2143,0.2143,0.2143,0.2143,0.2143,0.1334,0.1364,0.135,0.1445,0.156,0.1726,0.1795,0.1922,0.2021,0.202,0.1904,0.1903,0.2024,0.2001,0.2001,0.2,0.2,0.2,0.2,0.1394,0.1376,0.139,0.1462,0.1516,0.161,0.1741,0.1765,0.1803,0.1846,0.1845,0.2026,0.203,0.2015,0.1994,0.1995,0.1995,0.1996,0.1996,0.1449,0.1422,0.1463,0.1467,0.1509,0.146,0.1558,0.1538,0.1575,0.1552,0.1746,0.1754,0.1727,0.1738,0.1715,0.1617,0.1617,0.1617,0.1617,0.1485,0.1476,0.147,0.1431,0.1421,0.1373,0.1251,0.1231,0.1339,0.1361,0.1372,0.1388,0.1409,0.1366,0.1386,0.1358,0.1166,0.1166,0.1165,0.1489,0.1515,0.1467,0.1404,0.1345,0.1232,0.106,0.0952,0.101,0.115,0.1325,0.1581,0.1638,0.1657,0.1622,0.1642,0.1609,0,0]},{"header":{"parameterUnit":"m.s-1","parameterCategory":2,"la1":30.2992,"la2":30.254,"lo1":-89.0895,"lo2":-89.0443,"dy":0.0025,"dx":0.0025,"nx":19,"ny":19,"refTime":"2026-03-21T09:00:00:Z","depth":"2","parameterNumber":3,"parameterNumberName":"V-component_of_CURRENTS"},"data":[0,0,0,0.0018,0.0019,0.0015,0.0015,0.0139,0.0141,0,0,0,0,0,0,0,0,0,0,0,0.0003,0.0003,0.0018,0.0019,0.0016,0.0015,0.0139,0.0141,0,0,0,0,0,0,0,0,0,0,0,0.0003,0.0003,0.0003,0.0019,0.0016,0.0015,0.0138,0.0103,0,0,0,0,0,0,0,0,0,0,0.0088,0.0065,0.0003,0.0003,0.0019,0.0016,0.0015,0.01,0.0106,0.0185,0,0.0186,0,0.019,0.0154,0.0155,0,0,0,-0.0005,0.006,0.0068,0.0003,0.002,0.0016,0.001,0.0102,0.0109,0.0193,0.0188,0.0192,0.0192,0.0156,0.0157,0.0386,0.0387,0,0,-0.0005,-0.0001,0.0062,0.0072,0.0026,0.0011,0.0011,0.0104,0.0114,0.0188,0.0195,0.0194,0.0157,0.0159,0.0385,0.0387,0,0,0,0.0012,-0.0001,-0.0,0.0067,0.0069,0.0011,0.0011,0.0108,0.0111,0.0196,0.0195,0.0158,0.0161,0.0384,0.0386,0.0463,0,0,0,0.0011,0.0011,0.0,0.0002,0.0067,0.0073,0.0013,0.0103,0.0114,0.0195,0.0158,0.0163,0.0383,0.0385,0.0458,0.0477,0,0,0,0.0002,0.001,0.0012,0.0002,0.0014,0.0071,0.0076,0.0104,0.0117,0.0155,0.0163,0.0382,0.0385,0.0454,0.0471,0.0495,0,0,0,0.0001,0.0027,0.0012,0.0039,0.0014,0.0095,0.0075,0.014,0.018,0.0159,0.0383,0.0386,0.0453,0.0467,0.0492,0.0435,0.0446,0,0,0.0038,0.0031,0.0047,0.0034,0.0103,0.0093,0.0203,0.0239,0.0243,0.0355,0.0359,0.046,0.0471,0.0494,0.0574,0.058,0,0,0,0.0061,0.0072,0.0089,0.0119,0.017,0.025,0.0288,0.0316,0.0391,0.0282,0.0487,0.0492,0.0504,0.0464,0.047,0.0397,0.0397,0.0397,0.0396,0.008,0.0105,0.016,0.0212,0.0287,0.0381,0.0442,0.0498,0.0493,0.0539,0.0576,0.0674,0.0636,0.0639,0.0607,0.0608,0.0608,0.0608,0.0609,0.0133,0.0183,0.023,0.0298,0.0399,0.0519,0.0638,0.0642,0.0711,0.0677,0.0685,0.0574,0.065,0.0615,0.0614,0.0613,0.0612,0.0612,0.0611,0.0156,0.0205,0.0218,0.0339,0.0486,0.0611,0.0737,0.0787,0.0784,0.0809,0.0731,0.0728,0.0687,0.0804,0.0805,0.0805,0.0805,0.0805,0.0805,0.0203,0.0233,0.0279,0.0391,0.0495,0.0642,0.0787,0.0824,0.0835,0.0805,0.0804,0.0739,0.0733,0.0699,0.0809,0.0808,0.0808,0.0808,0.0807,0.0296,0.0252,0.0364,0.0424,0.0606,0.0708,0.0804,0.0849,0.0863,0.0847,0.0798,0.0796,0.0755,0.0749,0.0715,0.0823,0.0823,0.0823,0.0823,0.0333,0.0318,0.0447,0.0551,0.0674,0.076,0.0795,0.0767,0.0757,0.0692,0.0697,0.0643,0.0646,0.0594,0.0591,0.0552,0.0618,0.0617,0.0617,0.0382,0.0428,0.0518,0.0585,0.0721,0.0782,0.0783,0.0711,0.06,0.0607,0.064,0.0813,0.0746,0.0745,0.0672,0.0665,0.0605,0,0]}],[{"header":{"parameterUnit":"m.s-1","parameterCategory":2,"la1":30.2992,"la2":30.254,"lo1":-89.0895,"lo2":-89.0443,"dy":0.0025,"dx":0.0025,"nx":19,"ny":19,"refTime":"2026-03-21T09:00:00:Z","depth":"4","parameterNumber":2,"parameterNumberName":"U-component_of_CURRENTS"},"data":[0,0,0,-0.0559,-0.0562,-0.0702,-0.0702,-0.0816,-0.0817,0,0,0,0,0,0,0,0,0,0,0,-0.052,-0.0522,-0.0559,-0.0563,-0.0702,-0.0702,-0.0816,-0.0817,0,0,0,0,0,0,0,0,0,0,0,-0.0519,-0.0521,-0.0523,-0.0563,-0.0702,-0.0702,-0.0816,-0.0725,0,0,0,0,0,0,0,0,0,0,-0.0597,-0.0584,-0.0521,-0.0523,-0.0564,-0.0702,-0.0702,-0.0721,-0.073,-0.0737,0,-0.0778,0,-0.0799,-0.0824,-0.0824,0,0,0,-0.0556,-0.0577,-0.0603,-0.0523,-0.0566,-0.0701,-0.0637,-0.0727,-0.0737,-0.0749,-0.078,-0.0784,-0.0801,-0.0824,-0.0825,-0.1014,-0.1015,0,0,-0.0548,-0.0551,-0.0597,-0.0611,-0.0626,-0.0633,-0.0641,-0.0734,-0.076,-0.078,-0.0787,-0.0803,-0.0825,-0.0826,-0.1012,-0.1014,0,0,0,-0.0531,-0.0546,-0.0572,-0.0606,-0.0636,-0.0637,-0.0647,-0.0756,-0.0763,-0.0788,-0.0804,-0.0826,-0.0827,-0.1011,-0.1013,-0.0942,0,0,0,-0.0526,-0.0536,-0.0569,-0.0572,-0.0635,-0.071,-0.0667,-0.0757,-0.0768,-0.0804,-0.0826,-0.0828,-0.101,-0.1012,-0.094,-0.0869,0,0,0,-0.0509,-0.0534,-0.0555,-0.0572,-0.0633,-0.0709,-0.0722,-0.076,-0.0777,-0.0824,-0.0828,-0.1009,-0.1012,-0.0939,-0.087,-0.0794,0,0,0,-0.0498,-0.0546,-0.0556,-0.0619,-0.0632,-0.074,-0.0721,-0.0788,-0.083,-0.0826,-0.101,-0.1013,-0.0939,-0.0871,-0.0796,-0.0558,0,0,0,-0.0541,-0.0552,-0.0584,-0.0596,-0.0699,-0.0719,-0.0834,-0.0861,-0.0884,-0.097,-0.0975,-0.0941,-0.087,-0.0794,-0.0748,0,0,0,0,-0.0584,-0.0611,-0.0645,-0.0712,-0.0784,-0.0847,-0.0904,-0.0931,-0.0975,-0.0927,-0.1025,-0.0984,-0.0936,-0.081,-0.1028,-0.1028,-0.1027,-0.1027,-0.1027,-0.0659,-0.0676,-0.0755,-0.0799,-0.0863,-0.0951,-0.0985,-0.1042,-0.1045,-0.1062,-0.0989,-0.0967,-0.0844,-0.1086,-0.1085,-0.1085,-0.1085,-0.1085,-0.1085,-0.0702,-0.0742,-0.0798,-0.0858,-0.0936,-0.1002,-0.1051,-0.1035,-0.1016,-0.1046,-0.1003,-0.0826,-0.108,-0.1081,-0.1081,-0.1082,-0.1082,-0.1083,-0.1083,-0.0719,-0.0745,-0.0795,-0.0878,-0.0919,-0.0941,-0.0838,-0.0898,-0.0917,-0.088,-0.0686,-0.0905,-0.0832,-0.0812,-0.0812,-0.0811,-0.0811,-0.081,-0.081,-0.071,-0.0776,-0.0828,-0.0871,-0.0835,-0.07,-0.0674,-0.0618,-0.0681,-0.0564,-0.0798,-0.0874,-0.0883,-0.0819,-0.0801,-0.0802,-0.0803,-0.0804,-0.0805,-0.0677,-0.0778,-0.0797,-0.0794,-0.0591,-0.0479,-0.0424,-0.0299,-0.0234,-0.0193,-0.0416,-0.0438,-0.0418,-0.0438,-0.0356,-0.0199,-0.0196,-0.0193,0,-0.0674,-0.073,-0.077,-0.0661,-0.0412,-0.0294,-0.0021,0.0036,-0.012,-0.01,-0.0333,-0.0595,-0.0607,-0.0602,-0.0613,-0.0527,0,0,0,-0.0645,-0.0695,-0.0674,-0.0613,-0.0326,0.0018,0.0089,0.0111,-0.0022,0.0047,-0.011,-0.0132,-0.0548,-0.0773,-0.0795,-0.0805,-0.0702,0,0]},{"header":{"parameterUnit":"m.s-1","parameterCategory":2,"la1":30.2992,"la2":30.254,"lo1":-89.0895,"lo2":-89.0443,"dy":0.0025,"dx":0.0025,"nx":19,"ny":19,"refTime":"2026-03-21T09:00:00:Z","depth":"4","parameterNumber":3,"parameterNumberName":"V-component_of_CURRENTS"},"data":[0,0,0,0.0216,0.0219,0.0258,0.0257,0.015,0.0149,0,0,0,0,0,0,0,0,0,0,0,0.0153,0.0154,0.0216,0.0219,0.0258,0.0257,0.015,0.0149,0,0,0,0,0,0,0,0,0,0,0,0.0153,0.0154,0.0155,0.022,0.0258,0.0257,0.015,0.0143,0,0,0,0,0,0,0,0,0,0,0.0118,0.01,0.0154,0.0155,0.0221,0.0258,0.0257,0.0144,0.0144,0.0109,0,0.0134,0,0.019,0.0145,0.0145,0,0,0,0.0149,0.01,0.0142,0.0155,0.0222,0.0259,0.0221,0.0144,0.0144,0.0109,0.0133,0.0132,0.0188,0.0145,0.0144,0.0098,0.0098,0,0,0.0147,0.0122,0.0143,0.0142,0.0254,0.022,0.0223,0.0145,0.0132,0.0133,0.0131,0.0186,0.0144,0.0144,0.0098,0.0098,0,0,0,0.0188,0.012,0.0164,0.0144,0.0193,0.0223,0.0226,0.0133,0.0158,0.0131,0.0185,0.0144,0.0143,0.0098,0.0098,0.0028,0,0,0,0.0183,0.0151,0.0163,0.0143,0.0196,0.0188,0.0216,0.0161,0.0157,0.0186,0.0144,0.0142,0.0098,0.0098,0.003,0.0025,0,0,0,0.0148,0.0147,0.0165,0.0143,0.0202,0.0192,0.0207,0.0161,0.0193,0.0145,0.0142,0.0098,0.0098,0.0031,0.0028,0.0039,0,0,0,0.01,0.0137,0.0164,0.0171,0.0202,0.0195,0.0208,0.0197,0.0158,0.0144,0.0098,0.0098,0.0032,0.0029,0.004,0.0071,0,0,0,0.0126,0.0138,0.0132,0.016,0.0156,0.0184,0.0129,0.011,0.0142,0.01,0.01,0.0029,0.0028,0.0039,0.0068,0,0,0,0,0.0123,0.0123,0.0118,0.0115,0.0121,0.0093,0.0096,0.0097,0.0082,0.0139,0.0048,0.0051,0.0059,0.0081,0.0098,0.0098,0.0098,0.0098,0.0098,0.0118,0.0097,0.0062,0.0039,0.0031,0.0024,-0.0008,-0.0002,0.0025,0.0035,0.0005,-0.0013,0.0006,0.0008,0.0007,0.0007,0.0007,0.0006,0.0006,0.0089,0.0051,0.0003,-0.0008,-0.0038,-0.0059,-0.009,-0.0069,-0.0078,-0.0041,-0.003,0.002,-0.0,0.0001,0.0002,0.0003,0.0003,0.0004,0.0004,0.005,0.0037,0.0021,-0.0036,-0.0053,-0.0061,-0.0075,-0.0099,-0.0091,-0.0114,-0.0031,-0.0035,-0.0041,-0.0083,-0.0083,-0.0083,-0.0083,-0.0083,-0.0083,0.004,0.001,-0.0007,-0.0047,-0.0051,-0.0009,-0.0051,-0.0081,-0.0113,-0.0075,-0.0094,-0.0042,-0.0039,-0.0043,-0.0083,-0.0083,-0.0083,-0.0083,-0.0083,0.0008,0.0017,-0.0015,-0.0027,-0.0008,-0.0006,-0.0018,-0.006,-0.0093,-0.0109,-0.0057,-0.0058,-0.0015,-0.0012,-0.0014,-0.0047,-0.0046,-0.0046,0,-0.0002,-0.0011,-0.0003,0.0003,0.0013,0.0028,0.0005,-0.0023,-0.0077,-0.0022,-0.0116,-0.0054,-0.0055,-0.0006,-0.0003,-0.0004,0,0,0,-0.0043,-0.0018,-0.0,0.0045,0.0039,0.0066,0.0032,0.0007,0.0006,-0.0112,-0.0039,-0.0041,-0.0172,-0.0082,-0.0018,-0.0015,-0.0018,0,0]}]]